GW2347 Weather Reports


time (UTC)temp
C
wind
direction
speed
KPH
gust
KPH
rain 1hr
cm
rain 24hr
cm
rain mn
cm
humidity
%
barometer
mb
20260505200032 2 360 9.7 17.7 0.00 0.53 0.38 91 1022.7
20260505194528 2 5 4.8 12.9 0.03 0.53 0.38 91 1022.6
20260505193020 3 45 4.8 14.5 0.03 0.53 0.38 92 1022.6
20260505191533 2 49 3.2 11.3 0.08 0.53 0.38 92 1022.3
20260505190021 2 48 0.0 8.0 0.08 0.53 0.38 92 1022.3
20260505184518 2 61 4.8 8.0 0.05 0.51 0.36 92 1022.4
20260505183007 2 20 8.0 17.7 0.03 0.48 0.33 91 1022.6
20260505181555 2 63 6.4 14.5 0.00 0.46 0.33 91 1022.4
20260505180054 2 38 4.8 12.9 0.00 0.46 0.30 91 1022.2
20260505174544 2 5 8.0 16.1 0.00 0.46 0.30 92 1022.3
20260505173036 2 29 4.8 9.7 0.00 0.46 0.30 92 1022.5
20260505171526 2 344 4.8 9.7 0.00 0.46 0.30 92 1022.4
20260505170025 2 38 3.2 9.7 0.00 0.46 0.30 92 1022.2
20260505164520 2 346 1.6 9.7 0.00 0.46 0.30 93 1022.3
20260505163015 2 317 6.4 14.5 0.00 0.46 0.30 92 1022.2
20260505161557 1 355 1.6 14.5 0.00 0.46 0.30 93 1022.2
20260505153004 1 5 3.2 11.3 0.03 0.46 0.30 93 1022.4
20260505151551 1 360 3.2 9.7 0.03 0.46 0.30 93 1022.2
20260505150106 1 13 0.0 8.0 0.03 0.46 0.30 93 1022.1
20260505124558 1 355 4.8 24.1 0.03 0.41 0.25 92 1020.5
20260505124502 1 24 4.8 24.1 0.03 0.41 0.25 92 1020.5
20260505123055 1 330 6.4 19.3 0.05 0.38 0.23 92 1020.1
20260505121610 1 5 8.0 20.9 0.08 0.38 0.23 92 1020.1
20260505120025 1 279 8.0 20.9 0.08 0.38 0.23 91 1019.8
20260505114535 1 269 4.8 17.7 0.10 0.38 0.23 91 1019.8
20260505113019 2 22 4.8 22.5 0.08 0.33 0.18 90 1019.6
20260505111534 3 16 14.5 29.0 0.05 0.30 0.15 91 1019.3
20260505101542 3 17 19.3 27.4 0.10 0.25 0.10 91 1017.9
20260505100036 4 331 14.5 25.7 0.08 0.23 0.08 92 1017.4
20260505094536 4 360 14.5 25.7 0.05 0.20 0.05 92 1017.3
20260505093030 5 20 14.5 22.5 0.03 0.18 0.03 92 1017.0
20260505091516 5 331 4.8 20.9 0.00 0.15 0.00 92 1017.0
20260505090023 5 5 8.0 20.9 0.00 0.15 0.00 91 1016.9
20260505084513 5 92 8.0 24.1 0.00 0.15 0.00 90 1016.7
20260505083032 6 330 9.7 20.9 0.00 0.15 0.00 89 1016.9
20260505081515 7 5 12.9 29.0 0.00 0.15 0.00 87 1016.9
20260505074547 8 189 0.0 0.0 0.00 0.15 0.00 90 1016.7
20260505073055 7 189 0.0 0.0 0.00 0.15 0.00 89 1016.8
20260505071542 8 152 0.0 6.4 0.00 0.15 0.00 89 1016.7
20260505070038 8 161 3.2 8.0 0.00 0.15 0.00 89 1016.6
20260505064546 8 152 1.6 6.4 0.00 0.15 0.00 88 1016.6
20260505063050 8 178 0.0 6.4 0.00 0.15 0.00 89 1016.6
20260505061549 7 171 1.6 9.7 0.00 0.15 0.00 88 1016.6
20260505060037 7 169 3.2 8.0 0.00 0.15 0.15 88 1016.8
20260505054534 7 277 3.2 12.9 0.00 0.15 0.15 89 1016.8
20260505053017 7 182 3.2 8.0 0.03 0.15 0.15 88 1016.4
20260505051508 7 199 1.6 9.7 0.05 0.15 0.15 88 1016.4
20260505041600 8 253 8.0 16.1 0.05 0.10 0.10 85 1016.8
20260505040045 8 249 9.7 12.9 0.10 0.10 0.10 85 1016.5
20260505034536 8 257 3.2 6.4 0.08 0.08 0.08 86 1016.5
20260505033024 8 261 6.4 16.1 0.08 0.08 0.08 85 1016.4
20260505031534 9 337 3.2 17.7 0.05 0.05 0.05 80 1016.1
20260505030017 10 355 6.4 17.7 0.00 0.00 0.00 74 1015.3
20260505024506 10 316 4.8 12.9 0.00 0.00 0.00 69 1014.9
20260505023113 10 331 8.0 16.1 0.00 0.00 0.00 67 1014.7
20260505021557 11 307 6.4 17.7 0.00 0.00 0.00 67 1014.7
20260505020006 11 360 11.3 22.5 0.00 0.00 0.00 65 1014.8
20260505014555 13 327 11.3 19.3 0.00 0.00 0.00 53 1014.5
20260505013043 13 10 6.4 9.7 0.00 0.00 0.00 54 1014.4
20260505011537 13 33 6.4 12.9 0.00 0.00 0.00 53 1014.2
20260505010106 13 5 3.2 6.4 0.00 0.00 0.00 52 1014.1
20260505004541 14 224 8.0 12.9 0.00 0.00 0.00 46 1014.0
20260505003045 14 248 1.6 9.7 0.00 0.00 0.00 44 1013.9
20260505001525 15 360 4.8 17.7 0.00 0.00 0.00 42 1013.4
20260505000016 15 42 8.0 20.9 0.00 0.00 0.00 41 1013.3
20260504234509 15 17 11.3 20.9 0.00 0.00 0.00 41 1013.0
20260504233010 16 302 8.0 20.9 0.00 0.00 0.00 40 1012.9
20260504231600 16 344 16.1 24.1 0.00 0.00 0.00 38 1012.7
20260504231502 16 5 12.9 24.1 0.00 0.00 0.00 39 1012.7
20260504230014 16 327 11.3 22.5 0.00 0.00 0.00 36 1012.6
20260504224508 16 148 8.0 19.3 0.00 0.00 0.00 37 1012.8
20260504223012 16 322 6.4 25.7 0.00 0.00 0.00 36 1012.7
20260504221512 16 360 11.3 30.6 0.00 0.00 0.00 35 1012.4
20260504220010 16 103 14.5 33.8 0.00 0.00 0.00 34 1011.5
20260504214553 17 14 25.7 41.8 0.00 0.00 0.00 32 1011.2
20260504213040 17 9 22.5 53.1 0.00 0.00 0.00 33 1011.6
20260504211536 19 11 8.0 17.7 0.00 0.00 0.00 25 1011.4
20260504210024 18 80 4.8 11.3 0.00 0.00 0.00 26 1011.4
20260504204520 18 24 6.4 24.1 0.00 0.00 0.00 25 1011.8
20260504203019 17 194 4.8 32.2 0.00 0.00 0.00 28 1012.1
20260504201512 16 180 4.8 14.5 0.00 0.00 0.00 32 1012.7